Location: Horowhenua
(40.7500°S, 175.3333°E)
Time: 04:56:31
(UTC+00:00)

NOSS 3-1 (C) - Pass Details

Date: 28 January 2023
Orbit: 688 x 1519 km, 63.4° (Epoch: 29 March)

Event Time Altitude Azimuth Distance (km) Brightness Sun altitude
Rises 14:39:39 0° 223° (SW) 3,715 6.7 -24.0°
Reaches altitude 10° 14:42:42 10° 232° (SW) 2,624 5.8 -23.7°
Enters shadow 14:46:05 25° 260° (W) 1,639 4.4 -23.3°
